GSAT0102 (GALILEO-FM2)

Last updated on Tue Jul 01 2025 00:02:33 GMT+0000 (Coordinated Universal Time)

1 37847U 11060B 25181.41096859 -.00000099 00000+0 00000+0 0 9993 2 37847 57.0934 351.2989 0002699 11.0765 349.5191 1.70476022 85130
UTC large
Height (km)
Speed (km/s)
/
Latitude / Longitude
Inclination (degrees)
Orbital Period (minutes)
Azimuth
Elevation
Range (km)
Doppler Factor

Next 0 passes for location: London (51.5072 / 0.1276)

Sorry there are no passes over London.